STARLINK-2541 (48313 NORAD) Tracking and Keplerian Element Data

This shows tracking and keplerian element data for the satellite.

Feedback or suggestion? Click here.




ElementValue
Catalog48313
NameSTARLINK-2541
Epoch Orbit196
Epoch Day173.83334491
Epoch Year2021
RAAN258.8346
Inclination53.0509
Eccentricity0.0001106
Argument of Perigee84.6703
Mean Anonmoly256.0279
Mean Motion15.41429901
Decay Rate-0.01161276
L11 48313U 21036AP 21173.83334491 -.01161276 00000-0 -29974-1 0 9998
L22 48313 53.0509 258.8346 0001106 84.6703 256.0279 15.41429901 1968

Live tracking and technical data element details for STARLINK-2541 (NORAD 48313). STARLINK-2541 can be tracked NOW for your location showing map with azimuth and elevation plus other details from your city location.

Track the satellite on the map from your city or location and see movement details for azimuth, elevation, latitude, longitude, range, height, and movement on the map or in text.







IsCatalogInMostPopularTable: catalog: 48313, numindb: 20
Update: records affected: 1



GetName: 48313 STARLINK-2541

Hit Count: updated at: Thu, 24 Jun 2021 02:22:55 GMT